Location: Mauries
(43.6188°N, 0.3322°W)
Time: 04:36:57
(UTC+00:00)

Cosmos 1302 Rocket - Visible Passes

Search period start: 21 April 2026 00:00
Search period end: 01 May 2026 00:00
Orbit: 753 x 771 km, 74.0° (Epoch: 20 April)

Date Brightness Start Highest point End Pass type
(mag) Time Alt. Az. Time Alt. Az. Time Alt. Az.
21 Apr 5.4 00:39:24 35° NNE 00:39:24 35° NNE 00:42:23 10° NNE visible
21 Apr 5.9 02:19:31 17° NW 02:19:42 17° NW 02:23:07 10° NNW visible
22 Apr 5.9 00:00:58 23° NE 00:00:58 23° NE 00:03:10 10° NE visible
22 Apr 5.5 01:41:05 27° NW 01:41:05 27° NW 01:44:50 10° N visible
22 Apr 6.3 23:22:30 14° ENE 23:22:30 14° ENE 23:23:35 10° NE visible
23 Apr 5.2 01:02:36 37° NNW 01:02:36 37° NNW 01:06:12 10° N visible
24 Apr 5.2 00:24:07 39° NNE 00:24:07 39° NNE 00:27:22 10° NNE visible
24 Apr 6.2 02:04:14 12° WNW 02:04:58 13° NW 02:07:12 10° NNW visible
24 Apr 5.5 23:45:36 30° NE 23:45:36 30° NE 23:48:19 10° NNE visible
25 Apr 5.8 01:25:43 20° NW 01:25:43 20° NW 01:29:23 10° N visible
25 Apr 5.9 23:07:04 20° NE 23:07:04 20° NE 23:09:00 10° NE visible
26 Apr 5.4 00:47:09 31° NW 00:47:09 31° NW 00:50:57 10° N visible
26 Apr 6.3 22:28:29 13° ENE 22:28:29 13° ENE 22:29:13 10° NE visible
27 Apr 5.1 00:08:35 41° NNW 00:08:35 41° NNW 00:12:14 10° NNE visible
27 Apr 5.0 23:29:59 41° NNE 23:29:59 41° NNE 23:33:20 10° NNE visible
28 Apr 6.2 01:10:05 14° WNW 01:10:47 15° NW 01:13:41 10° NNW visible
28 Apr 5.3 22:51:20 31° NE 22:51:20 31° NE 22:54:13 10° NNE visible
29 Apr 5.7 00:31:26 24° WNW 00:31:26 24° WNW 00:35:34 10° N visible
29 Apr 5.7 22:12:40 20° ENE 22:12:40 20° ENE 22:14:47 10° NE visible
29 Apr 5.1 23:52:45 37° NW 23:52:45 37° NW 23:57:03 10° N visible
30 Apr 6.1 21:33:56 12° ENE 21:33:56 12° ENE 21:34:44 10° ENE visible
30 Apr 4.5 23:14:02 55° NNW 23:14:02 55° NNW 23:18:16 10° NNE visible
